Wind_Speed
17 16 16 15 15 14 14 13 12 12 12 12 11 10 9 9 8 7 7 7 7 7 7 7 7 7 6 6 6 5 4 4 3 3 3 3 2 2 2 3 3 3 4
19 18 17 17 16 16 16 15 14 14 13 13 13 12 11 10 10 9 8 8 8 8 8 8 8 8 8 7 7 6 6 5 5 4 4 4 3 3 3 3 3 4 4
20 20 19 19 18 17 17 17 16 16 15 15 14 14 13 12 11 11 10 10 10 9 9 9 10 9 9 9 8 8 7 7 6 6 5 5 4 4 4 4 4 4 5
21 21 21 20 20 19 19 18 18 17 16 16 16 15 14 14 13 12 12 11 11 11 11 11 11 11 10 10 10 9 9 8 8 7 7 6 5 5 5 5 5 5 6
22 22 22 22 21 21 21 20 20 19 18 17 17 17 16 15 14 14 13 13 13 13 13 13 13 12 11 11 11 11 10 9 9 8 8 7 7 6 6 6 6 6 7
24 23 23 23 22 22 22 22 21 21 20 19 19 18 18 17 16 16 15 14 14 14 14 14 14 14 13 12 12 12 11 11 10 9 9 9 8 8 8 8 8 8 8
25 25 25 24 23 23 23 23 23 22 21 20 20 20 19 18 18 18 17 16 16 16 16 16 16 15 15 14 14 13 13 12 12 11 10 10 10 10 9 9 9 10 10
26 27 26 25 25 25 24 24 24 23 23 22 21 21 20 19 18 18 18 18 18 18 17 17 17 17 16 15 15 15 15 14 13 12 12 12 11 11 11 11 11 11 11
27 27 27 27 27 26 26 26 25 25 24 23 23 22 21 20 19 19 19 19 19 19 18 18 18 18 18 17 17 17 16 16 15 14 14 13 13 13 13 13 13 13 13
27 28 28 28 28 28 27 27 26 26 26 25 24 23 22 22 21 20 20 20 20 19 19 19 19 19 20 19 18 19 18 18 17 16 15 15 15 14 14 14 14 14 14
28 28 28 28 29 30 29 29 28 28 28 27 26 25 24 23 23 22 22 22 21 21 20 20 19 19 20 20 20 20 20 19 19 18 18 17 16 16 16 16 16 15 16
29 29 29 29 29 31 31 30 30 30 29 29 28 27 26 25 24 24 24 23 23 23 22 21 21 21 21 21 21 22 22 22 21 20 19 19 18 17 17 17 17 17 17
29 30 30 30 30 30 32 33 32 32 31 30 30 29 28 27 26 25 25 25 24 24 24 23 23 23 23 23 23 23 23 23 22 21 21 20 20 19 19 19 19 19 19
29 30 31 31 31 31 32 34 34 34 33 32 31 30 30 30 29 28 27 26 26 25 25 25 24 24 25 25 25 25 24 24 23 22 22 22 21 20 20 20 20 20 20
29 30 32 32 32 33 33 34 36 36 35 34 33 32 32 32 31 30 29 28 27 27 27 26 26 25 25 26 27 27 26 26 25 24 23 23 23 22 22 21 21 22 22
32 32 32 33 33 33 34 34 36 37 36 36 35 34 33 33 33 33 32 30 29 29 28 28 27 26 26 27 27 28 28 28 27 27 25 25 24 24 24 23 23 23 22
33 33 34 33 34 34 35 36 36 37 37 37 37 36 35 35 35 34 34 33 32 31 30 30 29 28 27 27 28 29 29 29 30 29 28 27 27 26 26 26 25 25 24
35 34 35 35 35 36 36 37 38 38 38 38 38 38 37 36 35 35 35 35 34 33 32 31 31 30 29 29 29 30 30 31 31 31 30 30 29 28 27 28 28 27 27
35 35 35 36 36 36 37 38 38 39 40 39 40 40 39 38 37 36 36 36 36 35 34 33 33 31 31 31 32 32 32 32 33 32 32 32 31 30 30 30 30 29 29
35 36 36 36 37 37 37 38 39 40 40 40 41 41 41 39 39 37 37 37 37 36 36 35 34 33 33 33 33 33 34 34 34 35 35 34 33 32 32 32 32 31 30
36 36 37 37 37 38 38 38 39 41 41 41 41 42 42 41 40 39 39 39 38 38 37 36 36 35 35 35 35 35 36 37 37 37 37 36 35 35 34 33 33 33 32
36 36 37 37 38 38 38 37 38 41 41 41 41 42 42 43 41 40 41 41 40 38 38 37 37 37 36 36 36 37 38 39 39 40 39 38 38 37 36 36 36 35 35
36 36 37 38 38 38 38 38 39 40 41 41 41 41 43 43 43 42 42 42 43 41 40 40 39 38 37 37 37 37 38 39 40 40 41 40 40 39 39 39 39 38 38
36 36 37 38 38 38 38 38 40 41 42 42 41 41 43 44 45 44 44 44 44 43 41 41 40 40 40 39 39 39 39 39 40 40 41 42 42 42 41 40 40 40 40
35 36 36 37 37 38 38 37 38 40 42 43 43 43 43 44 46 46 45 45 46 44 43 43 42 42 42 42 42 41 40 40 41 41 41 42 42 43 43 43 43 42 41
34 35 36 37 37 38 38 39 39 39 42 42 43 44 44 44 45 47 48 47 47 46 46 45 45 44 43 43 43 42 42 42 42 43 43 43 43 43 44 44 45 44 44
Wind_Direction
242 242 243 243 243 242 239 238 239 238 233 228 228 230 231 232 233 235 238 239 239 236 234 237 241 242 242 247 249 251 254 257 262 262 261 266 277 293 312 325 335 343 348
243 243 243 243 243 243 242 241 241 238 237 234 231 231 232 234 237 236 240 241 241 239 239 242 241 243 243 248 253 254 254 258 265 265 262 263 271 280 296 312 321 325 330
243 243 243 244 244 244 243 242 241 240 238 237 233 233 235 236 239 240 241 242 242 243 244 244 243 247 247 250 253 255 255 256 260 263 262 261 266 274 286 299 308 315 322
242 243 244 245 246 246 244 243 242 242 239 237 236 235 235 237 239 242 243 244 244 245 245 247 248 249 250 251 252 254 255 255 257 259 259 261 266 272 281 291 297 304 313
242 242 244 246 247 248 245 244 243 242 240 238 237 236 237 237 239 242 245 246 246 246 248 251 253 252 251 251 250 251 253 254 255 257 258 261 267 272 278 283 289 295 302
243 242 243 245 246 247 245 243 243 242 240 239 238 238 239 239 241 242 246 248 248 248 249 251 251 250 250 249 248 248 250 252 254 257 259 261 266 270 274 278 284 291 296
244 242 243 244 245 245 245 243 242 241 241 240 240 239 240 243 243 243 246 249 251 251 251 249 248 245 248 248 246 245 246 249 251 255 259 261 264 267 271 277 283 290 292
245 244 243 243 244 244 244 243 241 241 241 241 241 240 240 243 245 245 247 249 251 253 252 247 245 244 246 247 244 243 243 246 250 255 258 260 263 267 271 276 281 286 290
245 246 245 244 245 245 244 242 242 241 241 241 241 241 241 243 245 246 248 250 252 252 249 247 246 245 246 246 244 243 244 246 250 253 257 260 264 267 271 274 278 282 287
246 246 246 246 245 246 245 243 242 240 239 240 241 242 242 243 245 247 249 251 253 249 248 247 246 247 247 247 246 245 244 246 248 252 255 260 263 266 269 274 279 281 284
247 247 247 247 246 246 245 243 242 241 239 240 242 243 244 245 246 249 250 252 251 248 247 247 247 248 248 248 248 247 246 247 248 251 254 257 262 265 268 272 277 281 283
246 247 247 248 247 246 245 244 243 242 241 240 241 243 244 246 247 248 250 251 250 248 247 248 249 250 250 250 251 249 248 247 249 251 253 256 260 263 265 270 275 280 283
248 246 247 248 248 247 246 244 243 242 242 241 241 242 244 246 247 250 250 250 249 247 247 248 251 250 251 250 251 251 250 248 248 251 253 255 259 262 264 268 273 278 283
249 247 246 248 248 248 247 246 244 243 242 242 241 242 244 246 247 250 251 250 249 247 247 248 251 252 252 251 252 252 251 251 248 249 252 255 258 261 264 266 271 276 281
250 249 248 247 247 247 247 247 245 243 243 242 241 242 243 245 246 248 250 249 248 248 248 249 250 253 253 252 252 251 250 250 249 249 251 254 257 260 263 266 271 274 278
252 250 249 247 247 247 246 246 245 243 243 242 241 242 243 244 246 247 248 247 248 248 249 250 251 254 256 254 252 250 249 250 249 249 250 254 257 260 263 265 269 273 276
253 253 252 250 247 247 247 246 245 244 243 242 241 242 243 245 246 246 247 247 247 248 249 252 252 254 257 256 253 250 249 251 250 250 251 253 257 260 263 264 268 271 274
255 255 253 250 249 247 248 247 246 245 243 242 241 242 243 244 245 246 246 246 246 247 249 252 253 254 255 255 254 252 250 251 251 250 252 254 257 259 263 265 267 270 272
256 255 254 252 250 248 247 247 246 246 243 243 242 243 243 245 245 246 246 245 245 246 249 251 252 252 254 254 254 253 252 252 252 251 253 255 257 260 262 265 267 270 272
256 256 255 254 252 248 247 248 247 244 242 242 243 244 244 245 246 246 246 246 245 247 249 251 251 252 253 254 254 254 253 253 253 253 254 256 257 259 261 264 267 270 272
256 256 256 255 253 251 249 250 247 244 241 242 244 245 245 245 247 248 246 246 246 247 249 250 251 253 254 254 255 255 255 254 254 254 254 255 257 259 261 263 265 268 271
257 257 256 256 254 253 252 253 248 244 244 244 245 245 246 245 247 249 249 248 247 249 250 251 251 253 254 255 256 257 256 256 254 254 253 254 256 258 261 263 265 267 269
259 259 258 257 256 255 254 253 249 245 246 247 247 247 247 246 248 251 250 250 248 249 251 251 251 252 254 256 257 258 258 257 255 254 254 255 257 259 261 263 265 266 268
259 259 258 256 255 255 255 254 250 249 249 248 248 248 248 248 249 251 252 250 249 250 251 252 252 253 255 257 257 259 260 260 258 256 256 257 258 259 261 263 265 267 268
260 259 257 255 255 255 254 253 252 252 251 249 248 249 250 249 249 250 250 251 250 250 252 253 253 253 255 257 257 259 260 261 260 258 257 258 259 261 262 263 265 267 268
261 260 257 256 256 256 255 255 254 254 251 250 249 250 251 250 251 251 250 250 251 250 251 253 253 253 254 256 257 257 259 260 260 258 257 259 261 261 262 264 265 267 269
Height
5836 5838 5839 5840 5841 5842 5843 5844 5846 5847 5848 5849 5850 5852 5853 5854 5855 5856 5857 5858 5859 5861 5862 5863 5864 5865 5866 5867 5867 5868 5869 5870 5870 5871 5871 5871 5872 5872 5872 5872 5872 5872 5871
5833 5835 5836 5837 5838 5839 5840 5842 5843 5844 5845 5847 5848 5849 5851 5852 5853 5854 5855 5857 5858 5859 5860 5861 5862 5863 5864 5865 5866 5867 5868 5868 5869 5869 5870 5870 5871 5871 5871 5871 5871 5871 5871
5829 5831 5832 5834 5835 5836 5837 5838 5840 5841 5842 5844 5845 5847 5848 5849 5851 5852 5853 5855 5856 5857 5858 5859 5861 5862 5863 5863 5864 5865 5866 5867 5867 5868 5869 5869 5869 5870 5870 5870 5870 5870 5870
5825 5827 5828 5830 5831 5832 5833 5835 5836 5838 5839 5840 5842 5843 5845 5847 5848 5850 5851 5852 5853 5854 5856 5857 5858 5859 5860 5861 5862 5863 5864 5865 5866 5866 5867 5868 5868 5868 5868 5869 5869 5869 5868
5820 5822 5824 5825 5827 5828 5829 5831 5832 5834 5835 5837 5838 5840 5842 5844 5845 5847 5848 5849 5850 5851 5853 5854 5855 5856 5857 5858 5859 5861 5862 5863 5864 5864 5865 5866 5866 5867 5867 5867 5867 5867 5867
5815 5817 5819 5821 5822 5824 5825 5826 5828 5830 5832 5833 5835 5837 5838 5840 5842 5843 5845 5846 5847 5848 5849 5850 5851 5852 5853 5855 5856 5858 5859 5860 5861 5862 5863 5864 5864 5865 5865 5865 5865 5865 5865
5810 5812 5814 5815 5817 5819 5820 5822 5824 5826 5827 5829 5831 5833 5835 5836 5838 5840 5841 5842 5843 5844 5845 5846 5847 5848 5850 5851 5853 5854 5856 5857 5859 5860 5861 5862 5862 5863 5863 5863 5864 5864 5864
5804 5806 5808 5810 5812 5814 5815 5817 5819 5821 5823 5825 5827 5829 5831 5832 5834 5836 5837 5838 5839 5840 5841 5842 5843 5845 5846 5848 5849 5851 5853 5854 5856 5857 5858 5859 5860 5860 5861 5861 5861 5861 5861
5798 5800 5803 5805 5806 5808 5810 5812 5814 5816 5818 5820 5823 5825 5826 5828 5830 5831 5833 5834 5835 5835 5836 5838 5839 5841 5842 5844 5846 5847 5849 5851 5852 5854 5855 5856 5857 5858 5858 5858 5859 5859 5859
5792 5795 5797 5799 5801 5803 5805 5807 5809 5811 5813 5815 5818 5820 5822 5824 5825 5827 5828 5829 5830 5831 5832 5834 5835 5837 5839 5840 5842 5843 5845 5847 5849 5850 5852 5853 5854 5854 5855 5855 5856 5856 5856
5786 5788 5790 5793 5795 5797 5799 5801 5803 5805 5808 5810 5813 5815 5817 5819 5820 5822 5823 5824 5825 5826 5828 5830 5831 5833 5834 5836 5838 5839 5841 5843 5844 5846 5848 5849 5850 5851 5851 5852 5852 5853 5852
5779 5781 5783 5786 5788 5790 5793 5795 5797 5800 5802 5805 5807 5809 5812 5814 5815 5817 5818 5819 5820 5822 5824 5825 5827 5828 5830 5832 5833 5835 5836 5838 5840 5842 5844 5845 5846 5847 5848 5848 5849 5849 5849
5771 5773 5776 5778 5781 5783 5786 5788 5791 5794 5796 5799 5801 5804 5806 5808 5810 5811 5813 5814 5815 5817 5819 5820 5822 5824 5825 5827 5828 5830 5832 5833 5835 5837 5839 5840 5842 5843 5843 5844 5844 5845 5845
5764 5766 5769 5771 5774 5776 5778 5781 5784 5787 5790 5792 5795 5797 5800 5802 5804 5805 5807 5808 5810 5812 5813 5815 5817 5818 5820 5822 5823 5825 5827 5828 5830 5832 5834 5836 5837 5838 5839 5839 5840 5840 5840
5757 5759 5761 5764 5766 5768 5771 5773 5776 5779 5782 5785 5788 5790 5793 5795 5797 5799 5801 5802 5804 5806 5808 5810 5811 5813 5814 5816 5817 5819 5821 5823 5825 5827 5829 5831 5832 5833 5834 5835 5835 5835 5836
5749 5751 5753 5756 5758 5760 5763 5765 5768 5771 5774 5777 5780 5783 5785 5788 5790 5793 5794 5796 5798 5800 5802 5804 5805 5807 5808 5810 5811 5813 5815 5817 5819 5821 5823 5825 5827 5828 5829 5829 5830 5830 5830
5741 5743 5745 5747 5750 5753 5755 5758 5760 5763 5766 5769 5772 5775 5778 5780 5783 5785 5787 5789 5791 5794 5796 5797 5799 5801 5802 5803 5805 5807 5809 5811 5813 5815 5817 5819 5821 5822 5823 5824 5824 5825 5825
5733 5735 5737 5739 5741 5744 5747 5749 5752 5755 5758 5761 5764 5767 5769 5772 5775 5778 5780 5782 5784 5787 5789 5791 5792 5794 5795 5797 5798 5800 5802 5804 5807 5809 5811 5813 5814 5816 5817 5818 5818 5819 5819
5724 5726 5728 5729 5732 5735 5737 5740 5743 5746 5749 5752 5755 5758 5761 5764 5766 5769 5772 5775 5777 5779 5782 5784 5785 5787 5788 5790 5792 5794 5796 5797 5799 5802 5804 5806 5807 5809 5810 5811 5812 5812 5813
5716 5718 5719 5721 5723 5725 5728 5731 5733 5736 5740 5743 5746 5749 5752 5755 5758 5761 5764 5766 5769 5772 5774 5776 5778 5779 5781 5783 5785 5786 5788 5790 5792 5794 5796 5798 5800 5801 5803 5804 5805 5805 5806
5708 5709 5711 5712 5714 5716 5719 5721 5724 5727 5730 5734 5737 5740 5743 5747 5749 5752 5755 5758 5761 5763 5766 5768 5770 5772 5773 5775 5777 5779 5780 5782 5784 5786 5788 5790 5792 5794 5795 5796 5797 5798 5798
5699 5700 5702 5703 5705 5707 5710 5712 5714 5718 5721 5724 5727 5731 5734 5737 5740 5743 5746 5749 5752 5754 5757 5759 5761 5763 5765 5767 5769 5770 5772 5774 5775 5778 5780 5782 5783 5785 5786 5787 5788 5789 5790
5691 5692 5693 5694 5696 5698 5700 5702 5705 5708 5712 5715 5718 5721 5724 5727 5730 5733 5736 5739 5742 5745 5748 5750 5753 5755 5757 5758 5760 5761 5763 5765 5766 5769 5771 5773 5774 5776 5777 5778 5779 5780 5780
5682 5683 5684 5685 5687 5689 5691 5694 5696 5700 5703 5706 5709 5711 5714 5717 5720 5723 5726 5729 5732 5735 5738 5740 5743 5745 5747 5749 5750 5752 5754 5755 5757 5759 5761 5762 5764 5766 5767 5768 5769 5770 5770
5674 5674 5676 5677 5678 5680 5682 5685 5687 5690 5693 5695 5698 5700 5703 5706 5709 5712 5715 5718 5721 5724 5728 5730 5733 5735 5737 5739 5741 5742 5743 5745 5746 5749 5751 5752 5754 5755 5757 5758 5759 5760 5760
5665 5666 5667 5669 5670 5672 5673 5675 5678 5680 5682 5684 5687 5690 5692 5695 5697 5700 5703 5706 5709 5713 5716 5719 5721 5724 5726 5728 5730 5732 5733 5735 5736 5737 5740 5741 5743 5744 5745 5747 5748 5748 5749